Tracking 29511 objects as of 17-Sep-2024
HD Live streaming from Space Station
objects crossing your sky now

STARLINK-4288

Track STARLINK-4288 now!
10-day predictions
STARLINK-4288 is classified as:


NORAD ID: 53005
Int'l Code: 2022-076V
Perigee: 545.8 km
Apogee: 547.8 km
Inclination: 53.2 °
Period: 95.4 minutes
Semi major axis: 6917 km
RCS: Unknown
Launch date: July 7, 2022
Source: United States (US)
Launch site: AIR FORCE EASTERN TEST RANGE (AFETR)
Your satellite tracking list
Your tracking list is empty




NASA's NSSDC Master Catalog

Two Line Element Set (TLE):
1 53005U 22076V   24260.53200229  .00006092  00000-0  40033-3 0  9997
2 53005  53.2168 354.4917 0001415  98.3764 261.7389 15.08859703121456
Source of the keplerian elements: AFSPC